Terminal Aerodrome Forecast
Issued by NWS Miami, FL

Home | Current Version | Previous Version | Text Only | Print | Product List | Glossary On
Versions: 1 2 3 4 5 6 7 8 9 10 11 12 13 14 15 16 17 18 19 20 21 22 23 24 25 26 27 28 29 30 31 32 33 34 35 36 37 38 39 40 41 42 43 44 45 46 47 48 49
000
FTUS42 KMFL 011733
TAFAPF
TAF
KAPF 011733Z 0118/0218 25011KT P6SM VCTS FEW020CB SCT080
     FM011900 25009KT P6SM VCTS SCT035CB SCT050
     FM012300 27002KT P6SM FEW025 SCT250
     FM020600 27005KT P6SM VCSH FEW025 SCT250=

USA.gov is the U.S. government's official web portal to all federal, state and local government web resources and services.